This demonstration page uses our WeatherBlox Daily Observations layout. Learn more.

Left ArrowRight Arrow

44.8408, -93.29828

Hourly Observations for August 26, 2021

Temp ( °F °C ) Dew Point ( °F °C ) Humidity (%) Winds ( mph kmh ) Pressure ( in mb ) Visibility ( mi km ) Precip ( " mm )
12:53 am 00:53 Mostly Clear 67 19.4 54 12.2 63 63 N 3 6 30.15 1021 10 16 0.00 0.00
1:53 am 01:53 Mostly Clear 66 18.9 54 12.2 65 65 NNE 3 6 30.16 1021 10 16 0.00 0.00
2:53 am 02:53 Partly Cloudy 65 18.3 53 11.7 66 66 NNE 5 7 30.16 1022 10 16 0.00 0.00
3:53 am 03:53 Mostly Cloudy 65 18.3 53 11.7 66 66 NE 3 6 30.18 1022 10 16 0.00 0.00
4:53 am 04:53 Mostly Cloudy 65 18.3 54 12.2 68 68 NE 5 7 30.16 1021 10 16 0.00 0.00
5:53 am 05:53 Mostly Cloudy 65 18.3 53 11.7 66 66 ENE 5 7 30.16 1021 10 16 0.00 0.00
6:53 am 06:53 Partly Cloudy 64 17.8 54 12.2 70 70 NE 5 7 30.15 1021 10 16 0.00 0.00
7:53 am 07:53 Mostly Cloudy 66 18.9 54 12.2 65 65 ENE 6 9 30.16 1021 10 16 0.00 0.00
8:53 am 08:53 Mostly Cloudy 68 20 54 12.2 61 61 ENE 8 13 30.14 1021 10 16 0.00 0.00
9:53 am 09:53 Cloudy 69 20.6 56 13.3 63 63 ESE 7 11 30.14 1021 10 16 0.00 0.00
10:06 am 10:06 Mostly Cloudy N/A N/A N/A E 10 17 N/A N/A 0.00 0.00
10:53 am 10:53 Cloudy 70 21.1 56 13.3 61 61 ESE 8 13 30.14 1021 10 16 0.00 0.00
11:53 am 11:53 Cloudy 72 22.2 57 13.9 59 59 NE 8 13 30.14 1021 10 16 0.00 0.00
12:53 pm 12:53 Cloudy 72 22.2 58 14.4 61 61 NE 7 11 30.14 1021 10 16 0.00 0.00
1:53 pm 13:53 Cloudy 71 21.7 59 15 66 66 NE 16 26 30.12 1020 10 16 0.00 0.00
2:27 pm 14:27 Cloudy with Nearby Thunderstorms 67 19.4 61 16.1 81 81 W 25 41 30.21 1023 5 8 0.00 0.00
2:29 pm 14:29 Cloudy with Thunderstorms 66 18.9 61 16.1 84 84 WNW 25 41 30.24 1024 1 2 0.01 0.25
2:32 pm 14:32 Cloudy with Strong Thunderstorms 64 17.8 61 16.1 90 90 NNW 22 35 30.21 1023 0 0 0.04 1.02
2:44 pm 14:44 Cloudy with Strong Thunderstorms 63 17.2 61 16.1 93 93 NNE 22 35 30.11 1020 1 1 0.69 17.53
2:53 pm 14:53 Cloudy with Nearby Thunderstorms 63 17.2 62 16.7 97 97 NNE 21 33 30.10 1019 1 2 0.82 20.83
3:01 pm 15:01 Mostly Cloudy with Nearby Thunderstorms 63 17.2 61 16.1 93 93 NE 22 35 30.07 1018 4 6 0.01 0.25
3:21 pm 15:21 Mostly Cloudy 65 18.3 60 15.6 84 84 E 18 30 30.03 1017 6 10 0.01 0.25
3:53 pm 15:53 Mostly Cloudy 68 20 60 15.6 76 76 E 20 31 30.04 1017 7 11 0.01 0.25
4:53 pm 16:53 Cloudy 68 20 61 16.1 78 78 E 14 22 30.01 1016 7 11 0.00 0.00
5:53 pm 17:53 Mostly Cloudy with Haze 70 21.1 62 16.7 76 76 E 14 22 30.03 1017 5 8 0.00 0.00
6:40 pm 18:40 Cloudy with Haze 70 21.1 62 16.7 76 76 NE 13 20 30.01 1016 5 8 0.00 0.00
6:53 pm 18:53 Cloudy with Haze 70 21.1 62 16.7 76 76 NE 10 17 30.01 1016 5 8 0.00 0.00
7:28 pm 19:28 Cloudy with Thunderstorms 68 20 63 17.2 84 84 N 15 24 30.05 1018 5 8 0.01 0.25
7:40 pm 19:40 Cloudy with Strong Thunderstorms 65 18.3 63 17.2 93 93 NNE 18 30 30.04 1017 2 3 0.02 0.51
7:53 pm 19:53 Cloudy with Strong Thunderstorms 64 17.8 63 17.2 96 96 NNE 15 24 30.07 1018 2 3 0.34 8.64
8:03 pm 20:03 Cloudy with Thunderstorms 65 18.3 63 17.2 93 93 NNE 13 20 30.06 1018 4 6 0.04 1.02
8:11 pm 20:11 Cloudy with Nearby Thunderstorms 65 18.3 64 17.8 97 97 NE 9 15 30.04 1017 5 8 0.04 1.02
8:28 pm 20:28 Cloudy with Nearby Thunderstorms 65 18.3 64 17.8 97 97 ENE 13 20 30.06 1018 2 3 0.08 2.03
8:36 pm 20:36 Cloudy with Nearby Thunderstorms 65 18.3 64 17.8 97 97 E 13 20 30.06 1018 1 2 0.23 5.84
8:43 pm 20:43 Cloudy with Nearby Thunderstorms 66 18.9 64 17.8 93 93 E 14 22 30.05 1018 2 3 0.25 6.35
8:53 pm 20:53 Cloudy with Light Rain 66 18.9 65 18.3 96 96 E 13 20 30.07 1018 4 6 0.25 6.35
9:53 pm 21:53 Cloudy with Mist and Fog 68 20 66 18.9 93 93 ESE 15 24 30.05 1018 6 10 0.05 1.27
10:22 pm 22:22 Cloudy with Nearby Thunderstorms 68 20 66 18.9 93 93 ESE 12 19 30.03 1017 6 10 0.00 0.00
10:53 pm 22:53 Cloudy with Light Rain 68 20 66 18.9 93 93 E 9 15 30.03 1017 9 14 0.00 0.00
11:46 pm 23:46 Cloudy with Heavy Rain 67 19.4 66 18.9 97 97 NE 6 9 30.00 1016 2 3 0.03 0.76
11:49 pm 23:49 Cloudy with Strong Thunderstorms 66 19 66 19 100 100 NE 6 9 30.00 1016 1 2 0.10 2.54
11:53 pm 23:53 Cloudy with Thunderstorms 67 19.4 66 18.9 97 97 VRB 6 9 30.02 1017 4 6 0.12 3.05

Powered by AerisWeather